Weather History for Wallops Island, VA

Change the Weather History Date:

Wednesday, November 14, 2012

  Actual Average Record
Temperature  
Mean Temperature 44 °F 50 °F  
Max Temperature 51 °F 59 °F 77 °F (1993)
Min Temperature 36 °F 41 °F 24 °F (1986)
Degree Days  
Heating Degree Days 21    
Month to date heating degree days 230  
Since 1 July heating degree days 398  
Cooling Degree Days 0    
Month to date cooling degree days 0  
Year to date cooling degree days 1616  
Moisture  
Dew Point 30 °F    
Average Humidity 59    
Maximum Humidity 75    
Minimum Humidity 42    
Precipitation  
Precipitation 0.00 in 0.09 in 0.85 in (1997)
Month to date precipitation 0.49 1.33  
Year to date precipitation 45.11 35.87  
Sea Level Pressure  
Sea Level Pressure 30.43 in    
Wind  
Wind Speed 10 mph (NNE)    
Max Wind Speed 17 mph    
Max Gust Speed 22 mph    
Visibility 10 miles    
Events      
T = Trace of Precipitation, MM = Missing Value Source: NWS Daily Summary

Daily Weather History Graph

Daily Weather History Graph

Search for Another Location

Airport:

Trip Planner

Search our weather history database for the weather conditions in past years. The results will help you decide how hot, cold, wet, or windy it might be!

Date:

Astronomy

Nov. 14, 2012 Rise Set
Actual Time 6:41 AM EST 4:50 PM EST
Civil Twilight 6:13 AM EST 5:18 PM EST
Nautical Twilight 5:42 AM EST 5:50 PM EST
Astronomical Twilight 5:10 AM EST 6:21 PM EST
Moon 7:27 AM EST (11/14) 5:37 PM EST (11/14)
Length of Visible Light 11h 04m
Length of Day
10h 08m
New Moon, 1% of the Moon is Illuminated
Nov 14
New Moon
Nov 20
First Quarter
Nov 28
Full
Dec 6
Last Quarter
Dec 13
New

Hourly Weather History & Observations

Time (EST) Temp. Windchill Dew Point Humidity Pressure Visibility Wind Dir Wind Speed Gust Speed Precip Events Conditions
12:54 AM 43.0 °F 37.7 °F 32.0 °F 65% 30.41 in - North 9.2 mph - N/A   Mostly Cloudy
1:54 AM 42.1 °F 36.6 °F 32.0 °F 67% 30.43 in - North 9.2 mph - N/A   Mostly Cloudy
2:54 AM 39.0 °F 32.8 °F 30.0 °F 70% 30.43 in - North 9.2 mph - N/A   Clear
3:54 AM 37.9 °F 31.5 °F 28.9 °F 70% 30.43 in - North 9.2 mph - N/A   Clear
4:54 AM 37.0 °F 30.4 °F 28.0 °F 70% 30.44 in - North 9.2 mph - N/A   Clear
5:54 AM 37.0 °F 29.8 °F 28.0 °F 70% 30.45 in - North 10.4 mph - N/A   Clear
6:54 AM 36.0 °F 29.6 °F 28.0 °F 73% 30.46 in - North 8.1 mph - N/A   Clear
7:54 AM 37.0 °F 30.4 °F 28.0 °F 70% 30.48 in - North 9.2 mph - N/A   Mostly Cloudy
8:54 AM 43.0 °F 36.8 °F 30.9 °F 62% 30.48 in - North 11.5 mph 20.7 mph N/A   Scattered Clouds
9:54 AM 46.0 °F 39.3 °F 30.9 °F 56% 30.47 in - NNE 16.1 mph 20.7 mph N/A   Scattered Clouds
10:54 AM 48.0 °F - 30.9 °F 52% 30.48 in 10.0 mi NE 9.2 mph - N/A   Clear
11:54 AM 48.9 °F - 30.0 °F 48% 30.46 in - NNE 11.5 mph - N/A   Scattered Clouds
12:54 PM 51.1 °F - 30.0 °F 44% 30.44 in - North 9.2 mph - N/A   Scattered Clouds
1:54 PM 50.0 °F - 28.9 °F 44% 30.43 in - NNE 8.1 mph - N/A   Scattered Clouds
2:54 PM 50.0 °F - 28.0 °F 43% 30.41 in - NE 12.7 mph - N/A   Scattered Clouds
3:54 PM 46.9 °F - 32.0 °F 56% 30.43 in - ENE 13.8 mph - N/A   Clear
4:54 PM 44.1 °F 40.8 °F 30.9 °F 60% 30.44 in - NNE 5.8 mph - N/A   Clear
5:54 PM 42.1 °F 38.4 °F 28.9 °F 60% 30.43 in 10.0 mi North 5.8 mph - N/A   Clear
6:54 PM 39.9 °F 35.1 °F 28.0 °F 63% 30.42 in 10.0 mi NNW 6.9 mph - N/A   Mostly Cloudy
7:54 PM 42.1 °F 37.7 °F 28.0 °F 58% 30.41 in 10.0 mi North 6.9 mph - N/A   Overcast
8:54 PM 41.0 °F 35.2 °F 27.0 °F 57% 30.42 in 10.0 mi NNW 9.2 mph - N/A   Mostly Cloudy
9:54 PM 42.1 °F 36.1 °F 28.9 °F 60% 30.41 in 10.0 mi North 10.4 mph - N/A   Overcast
10:54 PM 42.1 °F 37.1 °F 30.9 °F 65% 30.38 in 10.0 mi North 8.1 mph - N/A   Scattered Clouds
11:54 PM 45.0 °F 38.9 °F 34.0 °F 65% 30.37 in 10.0 mi NNE 12.7 mph - N/A   Scattered Clouds